Flag for Canada Weather past 2 weeks in Belleville, Ontario, Canada

Now
68 °F

Fog.


Feels Like: 68 °F
Forecast: 63 / 82 °F
Wind: 5 mph from Southwest

Location: Trenton

Current Time: Aug 31, 2015 at 3:37:30 AM

Latest Report: Aug 31, 2015 at 3:00 AM


Visibility: 3 mi

Pressure: 29.97 "Hg

Humidity: 94%

Dew point: 66 °F

Location of BellevilleLocation

Historic Weather in Belleville — Graph

°F

Belleville temperature yesterday

Maximum temperature yesterday: 77 °F (at 2:00 PM)
Minimum temperature yesterday: 61 °F (at 4:00 AM)
Average temperature yesterday: 69 °F

Past Weeks' High & Low Weather Summary

 TemperatureHumidityPressure
High84 °F (Aug 17, 3:00 PM)100% (Aug 16, 2:00 AM)30.22 "Hg (Aug 16, 2:00 AM)
Low52 °F (Aug 28, 5:00 AM)47% (Aug 23, 6:00 PM)29.73 "Hg (Aug 20, 2:00 PM)
Average69 °F79%30.00 "Hg
* Reported Aug 16 2:00 AM — Aug 31 2:00 AM, Belleville, Weather by CustomWeather, © 2015

Note: Actual official high and low records may vary slightly from our data, if they occured in-between our weather recording intervals... More about our weather records

Advertising

Belleville weather history for previous 24 hours

 ConditionsComfort  
Time TempWeatherWind HumidityBarometerVisibility
2:00 AM
Mon, Aug 31
68 °FFog.3 mph88%29.98 "Hg6 mi
1:00 AM70 °FClear.5 mph88%29.99 "Hg7 mi
12:00 AM70 °FPassing clouds.6 mph88%30.00 "Hg8 mi
11:00 PM
Sun, Aug 30
70 °FPassing clouds.7 mph88%30.00 "Hg8 mi
10:00 PM68 °FPassing clouds.6 mph88%30.01 "Hg15 mi
9:00 PM70 °FPassing clouds.3 mph83%30.01 "Hg15 mi
8:00 PM70 °FScattered clouds.6 mph83%30.00 "Hg15 mi
7:00 PM72 °FScattered clouds.5 mph78%30.00 "Hg15 mi
6:00 PM73 °FPassing clouds.7 mph74%30.00 "Hg15 mi
5:00 PM77 °FPassing clouds.7 mph61%30.01 "Hg15 mi
4:00 PM77 °FScattered clouds.9 mph65%30.02 "Hg15 mi
3:00 PM77 °FScattered clouds.7 mph69%30.04 "Hg15 mi
2:00 PM77 °FPartly sunny.2 mph61%30.05 "Hg15 mi
1:00 PM75 °FOvercast.3 mph61%30.06 "Hg15 mi
12:00 PM75 °FPartly sunny.2 mph69%30.08 "Hg15 mi
11:00 AM70 °FOvercast.5 mph78%30.09 "Hg15 mi
10:00 AM68 °FOvercast.5 mph83%30.10 "Hg10 mi
9:00 AM66 °FBroken clouds.3 mph88%30.09 "Hg10 mi
8:00 AM64 °FFog.2 mph94%30.07 "Hg6 mi
7:00 AM63 °FFog.3 mph94%30.07 "Hg4 mi
6:00 AM63 °FFog.2 mph94%30.06 "Hg3 mi
5:00 AM61 °FFog.No wind94%30.06 "Hg3 mi
4:00 AM61 °FPassing clouds.No wind94%30.06 "Hg15 mi
3:00 AM64 °FPassing clouds.No wind88%30.06 "Hg15 mi
Weather by CustomWeather, © 2015

See weather overviewHow to use our weather pages